Home   Weather   Dundalk   Past weeks
Flag for Ireland

Past Weather in Dundalk, Ireland — Yesterday and Last 2 Weeks

Now
50 °F

Cool.


Feels Like: 45 °F
Forecast: 44 / 35 °F
Wind: 12 mph from Southwest

Location: Glenanne

Current Time: Oct 24, 2019 at 1:47:50 am

Latest Report: Oct 24, 2019 at 1:00 am


Visibility: 18 mi

Pressure: 29.50 "Hg

Humidity: 96%

Dew Point: 49 °F

Location of DundalkLocation

Past Weather in Dundalk — Graph

°F

Dundalk Temperature Yesterday

Maximum temperature yesterday: 53 °F (at 1:00 pm)
Minimum temperature yesterday: 46 °F (at 12:00 am)
Average temperature yesterday: 50 °F

High & Low Weather Summary for the Past Weeks

 TemperatureHumidityPressure
High56 °F (Oct 10, 4:00 pm)100% (Oct 12, 7:00 am)30.27 "Hg (Oct 12, 7:00 am)
Low37 °F (Oct 21, 8:00 am)60% (Oct 20, 3:00 pm)29.26 "Hg (Oct 18, 5:00 am)
Average47 °F89%29.64 "Hg
* Reported Oct 9 12:00 am — Oct 24 12:00 am, Dundalk. Weather by CustomWeather, © 2019

Note: Actual official high and low records may vary slightly from our data, if they occured in-between our weather recording intervals... More about our weather records

Advertising

Dundalk Weather History for the Previous 24 Hours

Scroll right to see more
 ConditionsComfort  
Time TempWeatherWind HumidityBarometerVisibility
12:00 am
Thu, Oct 24
51 °FCool.10 mph96%29.54 "Hg19 mi
11:00 pm
Wed, Oct 23
50 °FCool.12 mph96%29.54 "Hg22 mi
10:00 pm50 °FCool.13 mph97%29.53 "Hg22 mi
9:00 pm50 °FCool.16 mph97%29.53 "Hg5 mi
8:00 pm50 °FRain. Overcast.17 mph97%29.55 "Hg6 mi
7:00 pm49 °FRain. Overcast.17 mph97%29.55 "Hg6 mi
6:00 pm49 °FLight rain. Cloudy.17 mph94%29.57 "Hg10 mi
5:00 pm50 °FLight rain. Cloudy.17 mph91%29.59 "Hg7 mi
4:00 pm51 °FRain showers. Cloudy.14 mph88%29.61 "Hg8 mi
3:00 pm53 °FCool.16 mph78%29.63 "Hg25 mi
2:00 pm53 °FCool.18 mph78%29.65 "Hg28 mi
1:00 pm53 °FCool.18 mph78%29.68 "Hg19 mi
12:00 pm52 °FCool.20 mph83%29.72 "Hg31 mi
11:00 am53 °FCool.21 mph82%29.74 "Hg22 mi
10:00 am50 °FCool.21 mph87%29.77 "Hg25 mi
9:00 am49 °FCool.17 mph88%29.78 "Hg22 mi
8:00 am49 °FCool.13 mph90%29.79 "Hg22 mi
7:00 am49 °FCool.15 mph93%29.81 "Hg19 mi
6:00 am48 °FCool.14 mph95%29.83 "Hg19 mi
5:00 am48 °FCool.14 mph93%29.84 "Hg19 mi
4:00 am48 °FCool.9 mph93%29.87 "Hg19 mi
3:00 am47 °FCool.9 mph92%29.90 "Hg25 mi
2:00 am47 °FCool.8 mph93%29.93 "Hg25 mi
1:00 am46 °FCool.9 mph92%29.94 "Hg28 mi
Weather by CustomWeather, © 2019

See weather overview